This is the latest recevied weather packets stored in our database for station/object AC1IX. If no packets are shown the sender has not sent any weather packets the latest 10 day(s).
| Time | Temp. | Humidity | Pressure | Rain* | Wind** | Luminosity | Snow |
|---|---|---|---|---|---|---|---|
| 1777565392 | 8.33° C | 99% | 1007.9 hPa | 0 mm | - | 99 W/m² | - |
| 1777565088 | 8.33° C | 99% | 1007.9 hPa | 0 mm | - | 104 W/m² | - |
| 1777564784 | 8.33° C | 99% | 1007.9 hPa | 0 mm | - | 80 W/m² | - |
| 1777564479 | 8.33° C | 99% | 1007.9 hPa | 0 mm | - | 81 W/m² | - |
| 1777564175 | 8.33° C | 99% | 1007.9 hPa | 0 mm | - | 72 W/m² | - |
| 1777563872 | 8.33° C | 99% | 1008 hPa | 0 mm | - | 73 W/m² | - |
| 1777563567 | 8.89° C | 99% | 1007.8 hPa | 1.78 mm | - | 55 W/m² | - |
| 1777563267 | 8.89° C | 99% | 1007.4 hPa | 1.78 mm | - | 67 W/m² | - |
| 1777562963 | 8.89° C | 99% | 1007.5 hPa | 0 mm | - | 76 W/m² | - |
| 1777562660 | 8.89° C | 99% | 1007.2 hPa | 0 mm | - | 100 W/m² | - |
| 1777562354 | 8.89° C | 99% | 1007.4 hPa | 1.27 mm | - | 73 W/m² | - |
| 1777562050 | 8.89° C | 99% | 1007.8 hPa | 1.27 mm | - | 65 W/m² | - |
| 1777561747 | 8.89° C | 99% | 1007.8 hPa | 1.78 mm | - | 150 W/m² | - |
| 1777561443 | 8.89° C | 99% | 1007.4 hPa | 3.05 mm | - | 120 W/m² | - |
| 1777561138 | 8.89° C | 99% | 1007.5 hPa | 3.05 mm | - | 133 W/m² | - |
| 1777560833 | 8.89° C | 99% | 1007.3 hPa | 3.05 mm | - | 110 W/m² | - |
| 1777560531 | 8.89° C | 99% | 1007.7 hPa | 4.32 mm | - | 89 W/m² | - |
| 1777560229 | 8.33° C | 99% | 1007.7 hPa | 3.05 mm | - | 83 W/m² | - |
| 1777559925 | 8.33° C | 99% | 1007.7 hPa | 1.78 mm | - | 50 W/m² | - |
| 1777559620 | 8.33° C | 99% | 1007.7 hPa | 1.78 mm | - | 63 W/m² | - |
| 1777559319 | 8.33° C | 99% | 1007.5 hPa | 0 mm | - | 49 W/m² | - |
| 1777559014 | 8.33° C | 99% | 1007.8 hPa | 0 mm | - | 46 W/m² | - |
| 1777558710 | 8.33° C | 99% | 1007.7 hPa | 0 mm | - | 32 W/m² | - |
| 1777558406 | 8.33° C | 99% | 1007.5 hPa | 0 mm | - | 32 W/m² | - |
| 1777558102 | 8.33° C | 99% | 1007.4 hPa | 0 mm | - | 32 W/m² | - |
* Rain latest hour (hover to see other rain measurements)
** Current wind speed in m/s (hover to see current wind gust speed)